Year,Month,Day,Hour,Minute,Value (Times are PST for temperature in C)
2014,06,23,00,00,14.30
2014,06,23,00,01,14.20
2014,06,23,00,02,14.20
2014,06,23,00,03,14.20
2014,06,23,00,04,14.20
2014,06,23,00,05,14.20
2014,06,23,00,06,14.20
2014,06,23,00,07,14.20
2014,06,23,00,08,14.20
2014,06,23,00,09,14.20
2014,06,23,00,10,14.10
2014,06,23,00,11,14.10
2014,06,23,00,12,14.10
2014,06,23,00,13,14.10
2014,06,23,00,14,14.10
2014,06,23,00,15,14.00
2014,06,23,00,16,14.00
2014,06,23,00,17,13.90
2014,06,23,00,18,13.90
2014,06,23,00,19,13.90
2014,06,23,00,20,13.90
2014,06,23,00,21,13.80
2014,06,23,00,22,13.80
2014,06,23,00,23,13.80
2014,06,23,00,24,13.80
2014,06,23,00,25,13.80
2014,06,23,00,26,13.80
2014,06,23,00,27,13.70
2014,06,23,00,28,13.70
2014,06,23,00,29,13.70
2014,06,23,00,30,13.70
2014,06,23,00,31,13.70
2014,06,23,00,32,13.60
2014,06,23,00,33,13.60
2014,06,23,00,34,13.60
2014,06,23,00,35,13.60
2014,06,23,00,36,13.50
2014,06,23,00,37,13.50
2014,06,23,00,38,13.50
2014,06,23,00,39,13.40
2014,06,23,00,40,13.40
2014,06,23,00,41,13.40
2014,06,23,00,42,13.40
2014,06,23,00,43,13.30
2014,06,23,00,44,13.30
2014,06,23,00,45,13.30
2014,06,23,00,46,13.30
2014,06,23,00,47,13.30
2014,06,23,00,48,13.20
2014,06,23,00,49,13.20
2014,06,23,00,50,13.20
2014,06,23,00,51,13.20
2014,06,23,00,52,13.20
2014,06,23,00,53,13.20
2014,06,23,00,54,13.20
2014,06,23,00,55,13.20
2014,06,23,00,56,13.20
2014,06,23,00,57,13.20
2014,06,23,00,58,13.20
2014,06,23,00,59,13.20
2014,06,23,01,00,13.20
2014,06,23,01,01,13.20
2014,06,23,01,02,13.20
2014,06,23,01,03,13.20
2014,06,23,01,04,13.20
2014,06,23,01,05,13.20
2014,06,23,01,06,13.20
2014,06,23,01,07,13.10
2014,06,23,01,08,13.10
2014,06,23,01,09,13.10
2014,06,23,01,10,13.10
2014,06,23,01,11,13.10
2014,06,23,01,12,13.00
2014,06,23,01,13,13.00
2014,06,23,01,14,13.00
2014,06,23,01,15,13.00
2014,06,23,01,16,12.90
2014,06,23,01,17,12.90
2014,06,23,01,18,12.90
2014,06,23,01,19,12.90
2014,06,23,01,20,12.90
2014,06,23,01,21,12.90
2014,06,23,01,22,12.90
2014,06,23,01,23,12.90
2014,06,23,01,24,12.90
2014,06,23,01,25,12.90
2014,06,23,01,26,12.90
2014,06,23,01,27,12.90
2014,06,23,01,28,12.80
2014,06,23,01,29,12.80
2014,06,23,01,30,12.80
2014,06,23,01,31,12.80
2014,06,23,01,32,12.80
2014,06,23,01,33,12.80
2014,06,23,01,34,12.80
2014,06,23,01,35,12.80
2014,06,23,01,36,12.80
2014,06,23,01,37,12.90
2014,06,23,01,38,12.80
2014,06,23,01,39,12.80
2014,06,23,01,40,12.80
2014,06,23,01,41,12.80
2014,06,23,01,42,12.80
2014,06,23,01,43,12.80
2014,06,23,01,44,12.80
2014,06,23,01,45,12.80
2014,06,23,01,46,12.80
2014,06,23,01,47,12.80
2014,06,23,01,48,12.80
2014,06,23,01,49,12.80
2014,06,23,01,50,12.80
2014,06,23,01,51,12.80
2014,06,23,01,52,12.80
2014,06,23,01,53,12.80
2014,06,23,01,54,12.80
2014,06,23,01,55,12.80
2014,06,23,01,56,12.80
2014,06,23,01,57,12.80
2014,06,23,01,58,12.80
2014,06,23,01,59,12.80
2014,06,23,02,00,12.80
2014,06,23,02,01,12.80
2014,06,23,02,02,12.80
2014,06,23,02,03,12.80
2014,06,23,02,04,12.80
2014,06,23,02,05,12.80
2014,06,23,02,06,12.90
2014,06,23,02,07,12.90
2014,06,23,02,08,12.90
2014,06,23,02,09,13.00
2014,06,23,02,10,13.00
2014,06,23,02,11,13.10
2014,06,23,02,12,13.10
2014,06,23,02,13,13.20
2014,06,23,02,14,13.20
2014,06,23,02,15,13.20
2014,06,23,02,16,13.20
2014,06,23,02,17,13.20
2014,06,23,02,18,13.20
2014,06,23,02,19,13.10
2014,06,23,02,20,13.10
2014,06,23,02,21,13.10
2014,06,23,02,22,13.10
2014,06,23,02,23,13.00
2014,06,23,02,24,13.00
2014,06,23,02,25,13.00
2014,06,23,02,26,13.00
2014,06,23,02,27,13.00
2014,06,23,02,28,13.00
2014,06,23,02,29,13.00
2014,06,23,02,30,13.00
2014,06,23,02,31,13.00
2014,06,23,02,32,13.00
2014,06,23,02,33,12.90
2014,06,23,02,34,12.90
2014,06,23,02,35,12.90
2014,06,23,02,36,12.90
2014,06,23,02,37,12.90
2014,06,23,02,38,12.90
2014,06,23,02,39,12.90
2014,06,23,02,40,12.90
2014,06,23,02,41,12.90
2014,06,23,02,42,13.00
2014,06,23,02,43,13.00
2014,06,23,02,44,13.10
2014,06,23,02,45,13.10
2014,06,23,02,46,13.20
2014,06,23,02,47,13.20
2014,06,23,02,48,13.20
2014,06,23,02,49,13.10
2014,06,23,02,50,13.10
2014,06,23,02,51,13.10
2014,06,23,02,52,13.10
2014,06,23,02,53,13.10
2014,06,23,02,54,13.20
2014,06,23,02,55,13.20
2014,06,23,02,56,13.20
2014,06,23,02,57,13.20
2014,06,23,02,58,13.20
2014,06,23,02,59,13.20
2014,06,23,03,00,13.20
2014,06,23,03,01,13.20
2014,06,23,03,02,13.20
2014,06,23,03,03,13.20
2014,06,23,03,04,13.10
2014,06,23,03,05,13.10
2014,06,23,03,06,13.00
2014,06,23,03,07,13.00
2014,06,23,03,08,13.00
2014,06,23,03,09,12.90
2014,06,23,03,10,12.90
2014,06,23,03,11,12.90
2014,06,23,03,12,12.80
2014,06,23,03,13,12.80
2014,06,23,03,14,12.80
2014,06,23,03,15,12.80
2014,06,23,03,16,12.80
2014,06,23,03,17,12.80
2014,06,23,03,18,12.80
2014,06,23,03,19,12.80
2014,06,23,03,20,12.70
2014,06,23,03,21,12.70
2014,06,23,03,22,12.70
2014,06,23,03,23,12.70
2014,06,23,03,24,12.70
2014,06,23,03,25,12.70
2014,06,23,03,26,12.70
2014,06,23,03,27,12.60
2014,06,23,03,28,12.60
2014,06,23,03,29,12.60
2014,06,23,03,30,12.50
2014,06,23,03,31,12.50
2014,06,23,03,32,12.50
2014,06,23,03,33,12.40
2014,06,23,03,34,12.40
2014,06,23,03,35,12.40
2014,06,23,03,36,12.40
2014,06,23,03,37,12.40
2014,06,23,03,38,12.30
2014,06,23,03,39,12.30
2014,06,23,03,40,12.30
2014,06,23,03,41,12.30
2014,06,23,03,42,12.20
2014,06,23,03,43,12.20
2014,06,23,03,44,12.20
2014,06,23,03,45,12.20
2014,06,23,03,46,12.20
2014,06,23,03,47,12.10
2014,06,23,03,48,12.10
2014,06,23,03,49,12.10
2014,06,23,03,50,12.10
2014,06,23,03,51,12.10
2014,06,23,03,52,12.00
2014,06,23,03,53,12.00
2014,06,23,03,54,11.90
2014,06,23,03,55,11.90
2014,06,23,03,56,11.90
2014,06,23,03,57,11.90
2014,06,23,03,58,11.90
2014,06,23,03,59,11.90
2014,06,23,04,00,11.90
2014,06,23,04,01,11.90
2014,06,23,04,02,11.80
2014,06,23,04,03,11.80
2014,06,23,04,04,11.80
2014,06,23,04,05,11.80
2014,06,23,04,06,11.80
2014,06,23,04,07,11.80
2014,06,23,04,08,11.80
2014,06,23,04,09,11.80
2014,06,23,04,10,11.80
2014,06,23,04,11,11.70
2014,06,23,04,12,11.70
2014,06,23,04,13,11.70
2014,06,23,04,14,11.70
2014,06,23,04,15,11.70
2014,06,23,04,16,11.70
2014,06,23,04,17,11.60
2014,06,23,04,18,11.60
2014,06,23,04,19,11.60
2014,06,23,04,20,11.60
2014,06,23,04,21,11.60
2014,06,23,04,22,11.60
2014,06,23,04,23,11.60
2014,06,23,04,24,11.60
2014,06,23,04,25,11.60
2014,06,23,04,26,11.60
2014,06,23,04,27,11.60
2014,06,23,04,28,11.60
2014,06,23,04,29,11.60
2014,06,23,04,30,11.60
2014,06,23,04,31,11.60
2014,06,23,04,32,11.60
2014,06,23,04,33,11.60
2014,06,23,04,34,11.70
2014,06,23,04,35,11.70
2014,06,23,04,36,11.80
2014,06,23,04,37,11.80
2014,06,23,04,38,11.90
2014,06,23,04,39,12.00
2014,06,23,04,40,12.00
2014,06,23,04,41,12.10
2014,06,23,04,42,12.10
2014,06,23,04,43,12.10
2014,06,23,04,44,12.10
2014,06,23,04,45,12.10
2014,06,23,04,46,12.10
2014,06,23,04,47,12.10
2014,06,23,04,48,12.10
2014,06,23,04,49,12.10
2014,06,23,04,50,12.10
2014,06,23,04,51,12.00
2014,06,23,04,52,12.00
2014,06,23,04,53,12.00
2014,06,23,04,54,11.90
2014,06,23,04,55,11.90
2014,06,23,04,56,11.90
2014,06,23,04,57,11.90
2014,06,23,04,58,11.90
2014,06,23,04,59,11.80
2014,06,23,05,00,11.80
2014,06,23,05,01,11.80
2014,06,23,05,02,11.80
2014,06,23,05,03,11.70
2014,06,23,05,04,11.70
2014,06,23,05,05,11.70
2014,06,23,05,06,11.70
2014,06,23,05,07,11.70
2014,06,23,05,08,11.70
2014,06,23,05,09,11.70
2014,06,23,05,10,11.60
2014,06,23,05,11,11.60
2014,06,23,05,12,11.60
2014,06,23,05,13,11.60
2014,06,23,05,14,11.60
2014,06,23,05,15,11.60
2014,06,23,05,16,11.60
2014,06,23,05,17,11.60
2014,06,23,05,18,11.60
2014,06,23,05,19,11.60
2014,06,23,05,20,11.60
2014,06,23,05,21,11.60
2014,06,23,05,22,11.60
2014,06,23,05,23,11.60
2014,06,23,05,24,11.60
2014,06,23,05,25,11.60
2014,06,23,05,26,11.60
2014,06,23,05,27,11.60
2014,06,23,05,28,11.60
2014,06,23,05,29,11.60
2014,06,23,05,30,11.60
2014,06,23,05,31,11.60
2014,06,23,05,32,11.60
2014,06,23,05,33,11.60
2014,06,23,05,34,11.60
2014,06,23,05,35,11.60
2014,06,23,05,36,11.60
2014,06,23,05,37,11.60
2014,06,23,05,38,11.60
2014,06,23,05,39,11.50
2014,06,23,05,40,11.50
2014,06,23,05,41,11.50
2014,06,23,05,42,11.50
2014,06,23,05,43,11.50
2014,06,23,05,44,11.50
2014,06,23,05,45,11.50
2014,06,23,05,46,11.50
2014,06,23,05,47,11.50
2014,06,23,05,48,11.50
2014,06,23,05,49,11.60
2014,06,23,05,50,11.60
2014,06,23,05,51,11.60
2014,06,23,05,52,11.60
2014,06,23,05,53,11.60
2014,06,23,05,54,11.60
2014,06,23,05,55,11.60
2014,06,23,05,56,11.60
2014,06,23,05,57,11.60
2014,06,23,05,58,11.60
2014,06,23,05,59,11.60
2014,06,23,06,00,11.60
2014,06,23,06,01,11.60
2014,06,23,06,02,11.60
2014,06,23,06,03,11.60
2014,06,23,06,04,11.60
2014,06,23,06,05,11.60
2014,06,23,06,06,11.60
2014,06,23,06,07,11.60
2014,06,23,06,08,11.60
2014,06,23,06,09,11.60
2014,06,23,06,10,11.60
2014,06,23,06,11,11.60
2014,06,23,06,12,11.60
2014,06,23,06,13,11.70
2014,06,23,06,14,11.70
2014,06,23,06,15,11.70
2014,06,23,06,16,11.60
2014,06,23,06,17,11.70
2014,06,23,06,18,11.70
2014,06,23,06,19,11.70
2014,06,23,06,20,11.70
2014,06,23,06,21,11.70
2014,06,23,06,22,11.70
2014,06,23,06,23,11.70
2014,06,23,06,24,11.70
2014,06,23,06,25,11.70
2014,06,23,06,26,11.80
2014,06,23,06,27,11.80
2014,06,23,06,28,11.80
2014,06,23,06,29,11.90
2014,06,23,06,30,11.90
2014,06,23,06,31,11.90
2014,06,23,06,32,12.00
2014,06,23,06,33,12.10
2014,06,23,06,34,12.10
2014,06,23,06,35,12.20
2014,06,23,06,36,12.20
2014,06,23,06,37,12.30
2014,06,23,06,38,12.30
2014,06,23,06,39,12.40
2014,06,23,06,40,12.50
2014,06,23,06,41,12.50
2014,06,23,06,42,12.60
2014,06,23,06,43,12.70
2014,06,23,06,44,12.70
2014,06,23,06,45,12.80
2014,06,23,06,46,12.80
2014,06,23,06,47,12.90
2014,06,23,06,48,12.90
2014,06,23,06,49,13.00
2014,06,23,06,50,13.00
2014,06,23,06,51,13.10
2014,06,23,06,52,13.20
2014,06,23,06,53,13.30
2014,06,23,06,54,13.30
2014,06,23,06,55,13.40
2014,06,23,06,56,13.50
2014,06,23,06,57,13.50
2014,06,23,06,58,13.60
2014,06,23,06,59,13.60
2014,06,23,07,00,13.70
2014,06,23,07,01,13.70
2014,06,23,07,02,13.80
2014,06,23,07,03,13.90
2014,06,23,07,04,13.90
2014,06,23,07,05,14.00
2014,06,23,07,06,14.10
2014,06,23,07,07,14.10
2014,06,23,07,08,14.10
2014,06,23,07,09,14.20
2014,06,23,07,10,14.20
2014,06,23,07,11,14.20
2014,06,23,07,12,14.30
2014,06,23,07,13,14.30
2014,06,23,07,14,14.30
2014,06,23,07,15,14.40
2014,06,23,07,16,14.40
2014,06,23,07,17,14.50
2014,06,23,07,18,14.50
2014,06,23,07,19,14.60
2014,06,23,07,20,14.70
2014,06,23,07,21,14.70
2014,06,23,07,22,14.80
2014,06,23,07,23,14.80
2014,06,23,07,24,14.90
2014,06,23,07,25,14.90
2014,06,23,07,26,15.00
2014,06,23,07,27,15.00
2014,06,23,07,28,15.00
2014,06,23,07,29,15.10
2014,06,23,07,30,15.10
2014,06,23,07,31,15.20
2014,06,23,07,32,15.20
2014,06,23,07,33,15.30
2014,06,23,07,34,15.30
2014,06,23,07,35,15.40
2014,06,23,07,36,15.40
2014,06,23,07,37,15.50
2014,06,23,07,38,15.50
2014,06,23,07,39,15.60
2014,06,23,07,40,15.70
2014,06,23,07,41,15.70
2014,06,23,07,42,15.80
2014,06,23,07,43,15.80
2014,06,23,07,44,15.80
2014,06,23,07,45,15.90
2014,06,23,07,46,15.90
2014,06,23,07,47,15.90
2014,06,23,07,48,16.00
2014,06,23,07,49,16.00
2014,06,23,07,50,16.10
2014,06,23,07,51,16.10
2014,06,23,07,52,16.20
2014,06,23,07,53,16.20
2014,06,23,07,54,16.30
2014,06,23,07,55,16.30
2014,06,23,07,56,16.30
2014,06,23,07,57,16.40
2014,06,23,07,58,16.50
2014,06,23,07,59,16.50
2014,06,23,08,00,16.60
2014,06,23,08,01,16.60
2014,06,23,08,02,16.70
2014,06,23,08,03,16.70
2014,06,23,08,04,16.70
2014,06,23,08,05,16.80
2014,06,23,08,06,16.80
2014,06,23,08,07,16.90
2014,06,23,08,08,16.90
2014,06,23,08,09,17.00
2014,06,23,08,10,17.00
2014,06,23,08,11,17.10
2014,06,23,08,12,17.20
2014,06,23,08,13,17.20
2014,06,23,08,14,17.30
2014,06,23,08,15,17.30
2014,06,23,08,16,17.30
2014,06,23,08,17,17.30
2014,06,23,08,18,17.30
2014,06,23,08,19,17.30
2014,06,23,08,20,17.30
2014,06,23,08,21,17.20
2014,06,23,08,22,17.20
2014,06,23,08,23,17.20
2014,06,23,08,24,17.20
2014,06,23,08,25,17.20
2014,06,23,08,26,17.20
2014,06,23,08,27,17.10
2014,06,23,08,28,17.10
2014,06,23,08,29,17.00
2014,06,23,08,30,17.00
2014,06,23,08,31,16.90
2014,06,23,08,32,16.90
2014,06,23,08,33,16.90
2014,06,23,08,34,16.80
2014,06,23,08,35,16.80
2014,06,23,08,36,16.80
2014,06,23,08,37,16.80
2014,06,23,08,38,16.80
2014,06,23,08,39,16.80
2014,06,23,08,40,16.90
2014,06,23,08,41,16.90
2014,06,23,08,42,16.90
2014,06,23,08,43,17.00
2014,06,23,08,44,17.00
2014,06,23,08,45,17.10
2014,06,23,08,46,17.10
2014,06,23,08,47,17.20
2014,06,23,08,48,17.30
2014,06,23,08,49,17.30
2014,06,23,08,50,17.40
2014,06,23,08,51,17.50
2014,06,23,08,52,17.50
2014,06,23,08,53,17.60
2014,06,23,08,54,17.60
2014,06,23,08,55,17.70
2014,06,23,08,56,17.70
2014,06,23,08,57,17.80
2014,06,23,08,58,17.80
2014,06,23,08,59,17.90
2014,06,23,09,00,17.90
2014,06,23,09,01,17.90
2014,06,23,09,02,17.90
2014,06,23,09,03,18.00
2014,06,23,09,04,18.00
2014,06,23,09,05,18.10
2014,06,23,09,06,18.10
2014,06,23,09,07,18.10
2014,06,23,09,08,18.10
2014,06,23,09,09,18.10
2014,06,23,09,10,18.10
2014,06,23,09,11,18.10
2014,06,23,09,12,18.10
2014,06,23,09,13,18.10
2014,06,23,09,14,18.10
2014,06,23,09,15,18.10
2014,06,23,09,16,18.10
2014,06,23,09,17,18.10
2014,06,23,09,18,18.10
2014,06,23,09,19,18.20
2014,06,23,09,20,18.20
2014,06,23,09,21,18.20
2014,06,23,09,22,18.20
2014,06,23,09,23,18.20
2014,06,23,09,24,18.20
2014,06,23,09,25,18.20
2014,06,23,09,26,18.20
2014,06,23,09,27,18.20
2014,06,23,09,28,18.20
2014,06,23,09,29,18.20
2014,06,23,09,30,18.10
2014,06,23,09,31,18.10
2014,06,23,09,32,18.10
2014,06,23,09,33,18.10
2014,06,23,09,34,18.10
2014,06,23,09,35,18.10
2014,06,23,09,36,18.20
2014,06,23,09,37,18.20
2014,06,23,09,38,18.20
2014,06,23,09,39,18.20
2014,06,23,09,40,18.20
2014,06,23,09,41,18.20
2014,06,23,09,42,18.20
2014,06,23,09,43,18.20
2014,06,23,09,44,18.30
2014,06,23,09,45,18.30
2014,06,23,09,46,18.40
2014,06,23,09,47,18.40
2014,06,23,09,48,18.50
2014,06,23,09,49,18.50
2014,06,23,09,50,18.50
2014,06,23,09,51,18.50
2014,06,23,09,52,18.50
2014,06,23,09,53,18.50
2014,06,23,09,54,18.50
2014,06,23,09,55,18.50
2014,06,23,09,56,18.50
2014,06,23,09,57,18.50
2014,06,23,09,58,18.50
2014,06,23,09,59,18.60
2014,06,23,10,00,18.60
2014,06,23,10,01,18.60
2014,06,23,10,02,18.60
2014,06,23,10,03,18.60
2014,06,23,10,04,18.60
2014,06,23,10,05,18.60
2014,06,23,10,06,18.60
2014,06,23,10,07,18.60
2014,06,23,10,08,18.60
2014,06,23,10,09,18.60
2014,06,23,10,10,18.60
2014,06,23,10,11,18.60
2014,06,23,10,12,18.60
2014,06,23,10,13,18.60
2014,06,23,10,14,18.70
2014,06,23,10,15,18.70
2014,06,23,10,16,18.70
2014,06,23,10,17,18.80
2014,06,23,10,18,18.80
2014,06,23,10,19,18.80
2014,06,23,10,20,18.80
2014,06,23,10,21,18.90
2014,06,23,10,22,19.00
2014,06,23,10,23,19.00
2014,06,23,10,24,19.00
2014,06,23,10,25,19.10
2014,06,23,10,26,19.10
2014,06,23,10,27,19.10
2014,06,23,10,28,19.10
2014,06,23,10,29,19.10
2014,06,23,10,30,19.10
2014,06,23,10,31,19.10
2014,06,23,10,32,19.10
2014,06,23,10,33,19.10
2014,06,23,10,34,19.10
2014,06,23,10,35,19.10
2014,06,23,10,36,19.10
2014,06,23,10,37,19.20
2014,06,23,10,38,19.30
2014,06,23,10,39,19.30
2014,06,23,10,40,19.40
2014,06,23,10,41,19.50
2014,06,23,10,42,19.60
2014,06,23,10,43,19.60
2014,06,23,10,44,19.70
2014,06,23,10,45,19.80
2014,06,23,10,46,19.80
2014,06,23,10,47,19.80
2014,06,23,10,48,19.70
2014,06,23,10,49,19.70
2014,06,23,10,50,19.70
2014,06,23,10,51,19.70
2014,06,23,10,52,19.70
2014,06,23,10,53,19.70
2014,06,23,10,54,19.70
2014,06,23,10,55,19.60
2014,06,23,10,56,19.60
2014,06,23,10,57,19.50
2014,06,23,10,58,19.50
2014,06,23,10,59,19.40
2014,06,23,11,00,19.40
2014,06,23,11,01,19.40
2014,06,23,11,02,19.40
2014,06,23,11,03,19.40
2014,06,23,11,04,19.40
2014,06,23,11,05,19.40
2014,06,23,11,06,19.50
2014,06,23,11,07,19.50
2014,06,23,11,08,19.50
2014,06,23,11,09,19.50
2014,06,23,11,10,19.50
2014,06,23,11,11,19.60
2014,06,23,11,12,19.60
2014,06,23,11,13,19.60
2014,06,23,11,14,19.60
2014,06,23,11,15,19.60
2014,06,23,11,16,19.60
2014,06,23,11,17,19.50
2014,06,23,11,18,19.50
2014,06,23,11,19,19.40
2014,06,23,11,20,19.40
2014,06,23,11,21,19.30
2014,06,23,11,22,19.30
2014,06,23,11,23,19.20
2014,06,23,11,24,19.10
2014,06,23,11,25,19.00
2014,06,23,11,26,19.00
2014,06,23,11,27,18.90
2014,06,23,11,28,18.90
2014,06,23,11,29,19.00
2014,06,23,11,30,19.10
2014,06,23,11,31,19.10
2014,06,23,11,32,19.10
2014,06,23,11,33,19.20
2014,06,23,11,34,19.30
2014,06,23,11,35,19.40
2014,06,23,11,36,19.50
2014,06,23,11,37,19.60
2014,06,23,11,38,19.70
2014,06,23,11,39,19.80
2014,06,23,11,40,20.00
2014,06,23,11,41,20.10
2014,06,23,11,42,20.30
2014,06,23,11,43,20.40
2014,06,23,11,44,20.50
2014,06,23,11,45,20.50
2014,06,23,11,46,20.60
2014,06,23,11,47,20.60
2014,06,23,11,48,20.70
2014,06,23,11,49,20.70
2014,06,23,11,50,20.70
2014,06,23,11,51,20.60
2014,06,23,11,52,20.60
2014,06,23,11,53,20.60
2014,06,23,11,54,20.60
2014,06,23,11,55,20.60
2014,06,23,11,56,20.60
2014,06,23,11,57,20.60
2014,06,23,11,58,20.60
2014,06,23,11,59,20.70
2014,06,23,12,00,20.70
2014,06,23,12,01,20.70
2014,06,23,12,02,20.70
2014,06,23,12,03,20.70
2014,06,23,12,04,20.70
2014,06,23,12,05,20.70
2014,06,23,12,06,20.80
2014,06,23,12,07,20.80
2014,06,23,12,08,20.80
2014,06,23,12,09,20.80
2014,06,23,12,10,20.90
2014,06,23,12,11,20.90
2014,06,23,12,12,20.90
2014,06,23,12,13,20.80
2014,06,23,12,14,20.80
2014,06,23,12,15,20.80
2014,06,23,12,16,20.80
2014,06,23,12,17,20.70
2014,06,23,12,18,20.70
2014,06,23,12,19,20.60
2014,06,23,12,20,20.60
2014,06,23,12,21,20.50
2014,06,23,12,22,20.40
2014,06,23,12,23,20.40
2014,06,23,12,24,20.30
2014,06,23,12,25,20.20
2014,06,23,12,26,20.10
2014,06,23,12,27,20.10
2014,06,23,12,28,20.00
2014,06,23,12,29,20.00
2014,06,23,12,30,20.00
2014,06,23,12,31,20.00
2014,06,23,12,32,20.00
2014,06,23,12,33,20.00
2014,06,23,12,34,20.10
2014,06,23,12,35,20.20
2014,06,23,12,36,20.20
2014,06,23,12,37,20.30
2014,06,23,12,38,20.30
2014,06,23,12,39,20.40
2014,06,23,12,40,20.40
2014,06,23,12,41,20.40
2014,06,23,12,42,20.40
2014,06,23,12,43,20.40
2014,06,23,12,44,20.30
2014,06,23,12,45,20.30
2014,06,23,12,46,20.30
2014,06,23,12,47,20.30
2014,06,23,12,48,20.30
2014,06,23,12,49,20.30
2014,06,23,12,50,20.30
2014,06,23,12,51,20.30
2014,06,23,12,52,20.30
2014,06,23,12,53,20.40
2014,06,23,12,54,20.30
2014,06,23,12,55,20.30
2014,06,23,12,56,20.30
2014,06,23,12,57,20.30
2014,06,23,12,58,20.30
2014,06,23,12,59,20.30
2014,06,23,13,00,20.30
2014,06,23,13,01,20.30
2014,06,23,13,02,20.30
2014,06,23,13,03,20.30
2014,06,23,13,04,20.30
2014,06,23,13,05,20.30
2014,06,23,13,06,20.30
2014,06,23,13,07,20.20
2014,06,23,13,08,20.20
2014,06,23,13,09,20.20
2014,06,23,13,10,20.20
2014,06,23,13,11,20.20
2014,06,23,13,12,20.10
2014,06,23,13,13,20.00
2014,06,23,13,14,19.90
2014,06,23,13,15,19.80
2014,06,23,13,16,19.80
2014,06,23,13,17,19.70
2014,06,23,13,18,19.70
2014,06,23,13,19,19.60
2014,06,23,13,20,19.70
2014,06,23,13,21,19.70
2014,06,23,13,22,19.70
2014,06,23,13,23,19.70
2014,06,23,13,24,19.80
2014,06,23,13,25,19.80
2014,06,23,13,26,19.90
2014,06,23,13,27,19.90
2014,06,23,13,28,20.00
2014,06,23,13,29,20.10
2014,06,23,13,30,20.10
2014,06,23,13,31,20.20
2014,06,23,13,32,20.30
2014,06,23,13,33,20.30
2014,06,23,13,34,20.30
2014,06,23,13,35,20.30
2014,06,23,13,36,20.30
2014,06,23,13,37,20.30
2014,06,23,13,38,20.40
2014,06,23,13,39,20.40
2014,06,23,13,40,20.30
2014,06,23,13,41,20.20
2014,06,23,13,42,20.20
2014,06,23,13,43,20.20
2014,06,23,13,44,20.20
2014,06,23,13,45,20.20
2014,06,23,13,46,20.20
2014,06,23,13,47,20.20
2014,06,23,13,48,20.30
2014,06,23,13,49,20.30
2014,06,23,13,50,20.30
2014,06,23,13,51,20.30
2014,06,23,13,52,20.30
2014,06,23,13,53,20.30
2014,06,23,13,54,20.30
2014,06,23,13,55,20.40
2014,06,23,13,56,20.40
2014,06,23,13,57,20.50
2014,06,23,13,58,20.50
2014,06,23,13,59,20.60
2014,06,23,14,00,20.60
2014,06,23,14,01,20.60
2014,06,23,14,02,20.70
2014,06,23,14,03,20.70
2014,06,23,14,04,20.60
2014,06,23,14,05,20.60
2014,06,23,14,06,20.50
2014,06,23,14,07,20.50
2014,06,23,14,08,20.40
2014,06,23,14,09,20.40
2014,06,23,14,10,20.30
2014,06,23,14,11,20.20
2014,06,23,14,12,20.20
2014,06,23,14,13,20.20
2014,06,23,14,14,20.20
2014,06,23,14,15,20.20
2014,06,23,14,16,20.20
2014,06,23,14,17,20.20
2014,06,23,14,18,20.30
2014,06,23,14,19,20.30
2014,06,23,14,20,20.30
2014,06,23,14,21,20.30
2014,06,23,14,22,20.30
2014,06,23,14,23,20.30
2014,06,23,14,24,20.30
2014,06,23,14,25,20.30
2014,06,23,14,26,20.30
2014,06,23,14,27,20.30
2014,06,23,14,28,20.30
2014,06,23,14,29,20.40
2014,06,23,14,30,20.40
2014,06,23,14,31,20.50
2014,06,23,14,32,20.50
2014,06,23,14,33,20.50
2014,06,23,14,34,20.50
2014,06,23,14,35,20.50
2014,06,23,14,36,20.60
2014,06,23,14,37,20.60
2014,06,23,14,38,20.70
2014,06,23,14,39,20.70
2014,06,23,14,40,20.70
2014,06,23,14,41,20.80
2014,06,23,14,42,20.90
2014,06,23,14,43,21.00
2014,06,23,14,44,21.10
2014,06,23,14,45,21.20
2014,06,23,14,46,21.30
2014,06,23,14,47,21.30
2014,06,23,14,48,21.40
2014,06,23,14,49,21.40
2014,06,23,14,50,21.40
2014,06,23,14,51,21.50
2014,06,23,14,52,21.50
2014,06,23,14,53,21.60
2014,06,23,14,54,21.60
2014,06,23,14,55,21.60
2014,06,23,14,56,21.60
2014,06,23,14,57,21.60
2014,06,23,14,58,21.60
2014,06,23,14,59,21.60
2014,06,23,15,00,21.60
2014,06,23,15,01,21.60
2014,06,23,15,02,21.60
2014,06,23,15,03,21.60
2014,06,23,15,04,21.60
2014,06,23,15,05,21.60
2014,06,23,15,06,21.60
2014,06,23,15,07,21.60
2014,06,23,15,08,21.50
2014,06,23,15,09,21.40
2014,06,23,15,10,21.40
2014,06,23,15,11,21.30
2014,06,23,15,12,21.30
2014,06,23,15,13,21.20
2014,06,23,15,14,21.20
2014,06,23,15,15,21.20
2014,06,23,15,16,21.20
2014,06,23,15,17,21.10
2014,06,23,15,18,21.10
2014,06,23,15,19,21.00
2014,06,23,15,20,21.00
2014,06,23,15,21,20.90
2014,06,23,15,22,20.90
2014,06,23,15,23,20.90
2014,06,23,15,24,20.90
2014,06,23,15,25,20.90
2014,06,23,15,26,20.90
2014,06,23,15,27,20.80
2014,06,23,15,28,20.80
2014,06,23,15,29,20.80
2014,06,23,15,30,20.80
2014,06,23,15,31,20.80
2014,06,23,15,32,20.80
2014,06,23,15,33,20.80
2014,06,23,15,34,20.80
2014,06,23,15,35,20.80
2014,06,23,15,36,20.80
2014,06,23,15,37,20.70
2014,06,23,15,38,20.70
2014,06,23,15,39,20.60
2014,06,23,15,40,20.50
2014,06,23,15,41,20.40
2014,06,23,15,42,20.40
2014,06,23,15,43,20.30
2014,06,23,15,44,20.30
2014,06,23,15,45,20.30
2014,06,23,15,46,20.20
2014,06,23,15,47,20.20
2014,06,23,15,48,20.20
2014,06,23,15,49,20.20
2014,06,23,15,50,20.20
2014,06,23,15,51,20.20
2014,06,23,15,52,20.20
2014,06,23,15,53,20.20
2014,06,23,15,54,20.20
2014,06,23,15,55,20.20
2014,06,23,15,56,20.20
2014,06,23,15,57,20.20
2014,06,23,15,58,20.20
2014,06,23,15,59,20.20
2014,06,23,16,00,20.20
2014,06,23,16,01,20.20
2014,06,23,16,02,20.20
2014,06,23,16,03,20.30
2014,06,23,16,04,20.30
2014,06,23,16,05,20.30
2014,06,23,16,06,20.30
2014,06,23,16,07,20.30
2014,06,23,16,08,20.30
2014,06,23,16,09,20.30
2014,06,23,16,10,20.30
2014,06,23,16,11,20.40
2014,06,23,16,12,20.40
2014,06,23,16,13,20.40
2014,06,23,16,14,20.40
2014,06,23,16,15,20.40
2014,06,23,16,16,20.40
2014,06,23,16,17,20.40
2014,06,23,16,18,20.40
2014,06,23,16,19,20.50
2014,06,23,16,20,20.50
2014,06,23,16,21,20.50
2014,06,23,16,22,20.50
2014,06,23,16,23,20.50
2014,06,23,16,24,20.50
2014,06,23,16,25,20.60
2014,06,23,16,26,20.60
2014,06,23,16,27,20.60
2014,06,23,16,28,20.60
2014,06,23,16,29,20.60
2014,06,23,16,30,20.70
2014,06,23,16,31,20.70
2014,06,23,16,32,20.70
2014,06,23,16,33,20.70
2014,06,23,16,34,20.70
2014,06,23,16,35,20.80
2014,06,23,16,36,20.80
2014,06,23,16,37,20.80
2014,06,23,16,38,20.80
2014,06,23,16,39,20.80
2014,06,23,16,40,20.80
2014,06,23,16,41,20.80
2014,06,23,16,42,20.80
2014,06,23,16,43,20.80
2014,06,23,16,44,20.80
2014,06,23,16,45,20.80
2014,06,23,16,46,20.80
2014,06,23,16,47,20.80
2014,06,23,16,48,20.80
2014,06,23,16,49,20.80
2014,06,23,16,50,20.80
2014,06,23,16,51,20.80
2014,06,23,16,52,20.70
2014,06,23,16,53,20.70
2014,06,23,16,54,20.70
2014,06,23,16,55,20.60
2014,06,23,16,56,20.60
2014,06,23,16,57,20.50
2014,06,23,16,58,20.40
2014,06,23,16,59,20.30
2014,06,23,17,00,20.30
2014,06,23,17,01,20.20
2014,06,23,17,02,20.20
2014,06,23,17,03,20.10
2014,06,23,17,04,20.00
2014,06,23,17,05,19.90
2014,06,23,17,06,19.80
2014,06,23,17,07,19.70
2014,06,23,17,08,19.60
2014,06,23,17,09,19.60
2014,06,23,17,10,19.50
2014,06,23,17,11,19.30
2014,06,23,17,12,19.20
2014,06,23,17,13,19.10
2014,06,23,17,14,19.00
2014,06,23,17,15,18.90
2014,06,23,17,16,18.80
2014,06,23,17,17,18.70
2014,06,23,17,18,18.60
2014,06,23,17,19,18.60